EXS2AP EGAA-GCTS

Flight info

Callsign EXS2AP
Flight time N/A
Altitude 34000
Route BELZU DCT DEGOS DCT TUGSI DCT RINUS DCT INRAD/M076F340 DCT OMOKO T16 EKROL/M076F350 T16 NAVIX/N0434F370 DCT LAPPA DCT FAGUT DCT ORTIS
Aircraft B738/M-SDE2E3FGHIRWXY/LB1

Departure

Time 2026-05-04 15:10
Airport Belfast International Airport (EGAA)

Arrival

Time N/A
Airport Tenerife Sur Airport (GCTS)
Time Latitude Longitude Altitude Speed Heading
2026-05-04 14:24 54.66019 -6.22024 276 ft 0 kts 10°
2026-05-04 14:54 54.66017 -6.22024 276 ft 1 kts 10°
2026-05-04 14:54 54.66003 -6.22032 276 ft 2 kts 27°
2026-05-04 14:55 54.65990 -6.22045 276 ft 2 kts 39°
2026-05-04 14:55 54.65980 -6.22063 276 ft 2 kts 52°
2026-05-04 14:55 54.65971 -6.22085 276 ft 2 kts 65°
2026-05-04 14:55 54.65966 -6.22108 276 ft 2 kts 65°
2026-05-04 14:56 54.65959 -6.22131 276 ft 2 kts 65°
2026-05-04 14:56 54.65953 -6.22155 276 ft 2 kts 65°
2026-05-04 14:56 54.65950 -6.22165 276 ft 0 kts 65°
2026-05-04 14:57 54.65950 -6.22164 276 ft 0 kts 65°
2026-05-04 14:59 54.65958 -6.22131 276 ft 1 kts 73°
2026-05-04 15:00 54.65957 -6.22099 276 ft 4 kts 122°
2026-05-04 15:00 54.65899 -6.22046 276 ft 11 kts 156°
2026-05-04 15:00 54.65839 -6.21972 276 ft 10 kts 106°
2026-05-04 15:01 54.65888 -6.21744 276 ft 11 kts 65°
2026-05-04 15:01 54.65927 -6.21602 276 ft 14 kts 65°
2026-05-04 15:01 54.65971 -6.21435 276 ft 16 kts 65°
2026-05-04 15:01 54.66023 -6.21242 276 ft 18 kts 64°
2026-05-04 15:02 54.66081 -6.21024 276 ft 21 kts 66°
2026-05-04 15:02 54.66145 -6.20783 276 ft 22 kts 65°
2026-05-04 15:02 54.66197 -6.20591 276 ft 10 kts 65°
2026-05-04 15:02 54.66224 -6.20491 276 ft 8 kts 65°
2026-05-04 15:03 54.66249 -6.20397 276 ft 9 kts 65°
2026-05-04 15:03 54.66278 -6.20290 276 ft 10 kts 65°
2026-05-04 15:03 54.66311 -6.20168 276 ft 12 kts 65°
2026-05-04 15:03 54.66349 -6.20027 276 ft 13 kts 65°
2026-05-04 15:04 54.66388 -6.19882 276 ft 12 kts 70°
2026-05-04 15:04 54.66392 -6.19778 276 ft 5 kts 111°
2026-05-04 15:04 54.66384 -6.19752 276 ft 0 kts 122°
2026-05-04 15:05 54.66383 -6.19751 276 ft 1 kts 122°
2026-05-04 15:05 54.66371 -6.19723 276 ft 2 kts 135°
2026-05-04 15:05 54.66367 -6.19716 276 ft 0 kts 140°
2026-05-04 15:08 54.66366 -6.19715 276 ft 0 kts 141°
2026-05-04 15:09 54.66317 -6.19670 276 ft 14 kts 157°
2026-05-04 15:09 54.66263 -6.19668 276 ft 2 kts 246°
2026-05-04 15:09 54.66248 -6.19729 276 ft 20 kts 247°
2026-05-04 15:10 54.65703 -6.21773 276 ft 150 kts 245°
2026-05-04 15:10 54.65182 -6.23673 635 ft 168 kts 245°
2026-05-04 15:10 54.64091 -6.27477 2142 ft 165 kts 246°
2026-05-04 15:11 54.63496 -6.29384 2685 ft 174 kts 246°
2026-05-04 15:11 54.62805 -6.31379 3186 ft 190 kts 232°
2026-05-04 15:11 54.61626 -6.32923 3671 ft 204 kts 214°
2026-05-04 15:11 54.60251 -6.34471 3958 ft 220 kts 219°
2026-05-04 15:12 54.58881 -6.36304 4350 ft 234 kts 222°
2026-05-04 15:12 54.57489 -6.38261 4832 ft 248 kts 222°
2026-05-04 15:12 54.56008 -6.40323 5317 ft 262 kts 221°
2026-05-04 15:12 54.54472 -6.42434 5943 ft 269 kts 221°
2026-05-04 15:13 54.52889 -6.44596 6635 ft 274 kts 221°
2026-05-04 15:13 54.51304 -6.46760 7350 ft 277 kts 221°
2026-05-04 15:13 54.49721 -6.48922 8037 ft 281 kts 221°
2026-05-04 15:13 54.48081 -6.51162 8708 ft 285 kts 221°
2026-05-04 15:14 54.46398 -6.53461 9366 ft 289 kts 221°
2026-05-04 15:14 54.44722 -6.55746 10030 ft 293 kts 220°
2026-05-04 15:14 54.43010 -6.58078 10546 ft 302 kts 220°
2026-05-04 15:14 54.41196 -6.60547 10906 ft 317 kts 220°
2026-05-04 15:15 54.39314 -6.63110 11235 ft 333 kts 220°
2026-05-04 15:15 54.37351 -6.65775 11623 ft 347 kts 219°
2026-05-04 15:15 54.35365 -6.68467 11953 ft 361 kts 219°
2026-05-04 15:16 54.31408 -6.73814 13161 ft 370 kts 219°
2026-05-04 15:16 54.29337 -6.76609 13764 ft 376 kts 219°
2026-05-04 15:16 54.24968 -6.82492 15117 ft 384 kts 219°
2026-05-04 15:17 54.22818 -6.85381 15731 ft 389 kts 219°
2026-05-04 15:17 54.18272 -6.91492 17000 ft 399 kts 220°
2026-05-04 15:17 54.16000 -6.94701 17641 ft 402 kts 221°
2026-05-04 15:18 54.13742 -6.98023 18265 ft 406 kts 222°
2026-05-04 15:18 54.11485 -7.01391 18840 ft 411 kts 222°
2026-05-04 15:18 54.09183 -7.04824 19446 ft 414 kts 222°
2026-05-04 15:19 54.04481 -7.11757 20683 ft 420 kts 221°
2026-05-04 15:19 54.02101 -7.15236 21287 ft 423 kts 221°
2026-05-04 15:19 53.97274 -7.22161 22347 ft 431 kts 219°
2026-05-04 15:20 53.94678 -7.25708 22920 ft 434 kts 218°
2026-05-04 15:20 53.92153 -7.29104 23463 ft 436 kts 218°
2026-05-04 15:20 53.89584 -7.32537 23979 ft 440 kts 218°
2026-05-04 15:20 53.87071 -7.35893 24455 ft 443 kts 219°
2026-05-04 15:21 53.84546 -7.39269 24870 ft 448 kts 219°
2026-05-04 15:21 53.82272 -7.42312 25308 ft 450 kts 219°
2026-05-04 15:21 53.77187 -7.49119 26203 ft 456 kts 219°
2026-05-04 15:22 53.74541 -7.52659 26583 ft 460 kts 219°
2026-05-04 15:22 53.71905 -7.56183 27109 ft 461 kts 219°
2026-05-04 15:22 53.66450 -7.63462 27899 ft 468 kts 219°
2026-05-04 15:23 53.63740 -7.67055 28406 ft 468 kts 218°
2026-05-04 15:23 53.61067 -7.70348 28967 ft 467 kts 215°
2026-05-04 15:23 53.58289 -7.73506 29445 ft 467 kts 213°
2026-05-04 15:23 53.55390 -7.76669 29886 ft 468 kts 213°
2026-05-04 15:24 53.49571 -7.82910 30821 ft 467 kts 213°
2026-05-04 15:24 53.43915 -7.89022 31789 ft 463 kts 213°
2026-05-04 15:25 53.41179 -7.92000 32251 ft 461 kts 213°
2026-05-04 15:25 53.38395 -7.95038 32632 ft 461 kts 213°
2026-05-04 15:25 53.35597 -7.98097 32958 ft 462 kts 213°
2026-05-04 15:26 53.30053 -8.04158 33747 ft 459 kts 213°
2026-05-04 15:26 53.27262 -8.07208 34065 ft 459 kts 213°
2026-05-04 15:26 53.21494 -8.13499 34072 ft 459 kts 213°
2026-05-04 15:27 53.12849 -8.22904 34076 ft 460 kts 213°
2026-05-04 15:28 53.04308 -8.32145 34073 ft 461 kts 212°
2026-05-04 15:29 52.95765 -8.41337 34073 ft 461 kts 212°
2026-05-04 15:30 52.75831 -8.62610 34086 ft 464 kts 212°
2026-05-04 15:31 52.67176 -8.71776 34090 ft 466 kts 211°
2026-05-04 15:32 52.52672 -8.87041 34080 ft 469 kts 211°
2026-05-04 15:34 52.38225 -9.02122 34080 ft 469 kts 211°
2026-05-04 15:34 52.29520 -9.11151 34084 ft 470 kts 211°
2026-05-04 15:35 52.20727 -9.19903 34084 ft 472 kts 208°
2026-05-04 15:36 52.11538 -9.28053 34085 ft 471 kts 206°
2026-05-04 15:36 52.05281 -9.33567 34083 ft 471 kts 207°
2026-05-04 15:37 51.99019 -9.39119 34070 ft 472 kts 207°
2026-05-04 15:37 51.92754 -9.44690 34070 ft 473 kts 207°
2026-05-04 15:38 51.86588 -9.50172 34073 ft 473 kts 207°
2026-05-04 15:38 51.80373 -9.55682 34075 ft 474 kts 207°
2026-05-04 15:39 51.74426 -9.60937 34082 ft 473 kts 207°
2026-05-04 15:40 51.65756 -9.68575 34084 ft 475 kts 206°
2026-05-04 15:40 51.59952 -9.73669 34080 ft 475 kts 206°
2026-05-04 15:41 51.54107 -9.78785 34091 ft 477 kts 206°
2026-05-04 15:41 51.48268 -9.83878 34095 ft 476 kts 206°
2026-05-04 15:42 51.42354 -9.89023 34094 ft 478 kts 206°
2026-05-04 15:42 51.36309 -9.94265 34098 ft 480 kts 206°
2026-05-04 15:43 51.30241 -9.99512 34095 ft 480 kts 206°
2026-05-04 15:43 51.24124 -10.04783 34095 ft 480 kts 206°
2026-05-04 15:44 51.18057 -10.09995 34097 ft 483 kts 206°
2026-05-04 15:44 51.11795 -10.15354 34100 ft 483 kts 206°
2026-05-04 15:45 51.05557 -10.20684 34098 ft 483 kts 206°
2026-05-04 15:45 50.99244 -10.26060 34100 ft 485 kts 206°
2026-05-04 15:46 50.92981 -10.31376 34094 ft 485 kts 206°
2026-05-04 15:46 50.86755 -10.36646 34083 ft 485 kts 206°
2026-05-04 15:47 50.80442 -10.41970 34091 ft 484 kts 206°
2026-05-04 15:47 50.73840 -10.47521 34080 ft 483 kts 206°
2026-05-04 15:48 50.67415 -10.52901 34085 ft 483 kts 206°
2026-05-04 15:48 50.57894 -10.60848 34094 ft 484 kts 207°
2026-05-04 15:49 50.51560 -10.66114 34092 ft 482 kts 206°
2026-05-04 15:49 50.45048 -10.71518 34076 ft 482 kts 206°
2026-05-04 15:50 50.38574 -10.76869 34086 ft 482 kts 206°
2026-05-04 15:50 50.32046 -10.82245 34092 ft 483 kts 206°
2026-05-04 15:51 50.25624 -10.87522 34089 ft 484 kts 206°
2026-05-04 15:51 50.19147 -10.92824 34095 ft 485 kts 206°
2026-05-04 15:52 50.12638 -10.98135 34076 ft 485 kts 206°
2026-05-04 15:52 50.06094 -11.03459 34071 ft 487 kts 206°
2026-05-04 15:53 49.99430 -11.08866 34078 ft 485 kts 206°
2026-05-04 15:53 49.92805 -11.14226 34068 ft 485 kts 206°
2026-05-04 15:54 49.86181 -11.19566 34089 ft 485 kts 206°
2026-05-04 15:54 49.79541 -11.24900 34097 ft 485 kts 206°
2026-05-04 15:55 49.73110 -11.30051 34087 ft 485 kts 206°
2026-05-04 15:55 49.66620 -11.35234 34091 ft 483 kts 206°
2026-05-04 15:56 49.60114 -11.40415 34089 ft 483 kts 206°
2026-05-04 15:56 49.53543 -11.45630 34096 ft 483 kts 206°
2026-05-04 15:57 49.46942 -11.50853 34091 ft 483 kts 207°
2026-05-04 15:57 49.40387 -11.56027 34081 ft 482 kts 206°
2026-05-04 15:58 49.33993 -11.61057 34087 ft 483 kts 207°
2026-05-04 15:58 49.27446 -11.66192 34084 ft 482 kts 206°
2026-05-04 15:59 49.20795 -11.71393 34075 ft 483 kts 206°
2026-05-04 15:59 49.14233 -11.76508 34073 ft 482 kts 206°
2026-05-04 16:00 49.07737 -11.81557 34095 ft 482 kts 206°
2026-05-04 16:00 49.01214 -11.86612 34090 ft 483 kts 206°
2026-05-04 16:01 48.94801 -11.91566 34100 ft 483 kts 206°
2026-05-04 16:01 48.88274 -11.96594 34105 ft 483 kts 206°
2026-05-04 16:02 48.81688 -12.01543 34106 ft 481 kts 202°
2026-05-04 16:03 48.71331 -12.07386 34102 ft 481 kts 198°
2026-05-04 16:03 48.64358 -12.11066 34077 ft 480 kts 199°
2026-05-04 16:04 48.57491 -12.14783 34071 ft 478 kts 199°
2026-05-04 16:04 48.47068 -12.20527 34100 ft 479 kts 199°
2026-05-04 16:05 48.40242 -12.24301 34080 ft 479 kts 199°
2026-05-04 16:06 48.29827 -12.30048 34090 ft 478 kts 199°
2026-05-04 16:07 48.15890 -12.37692 34093 ft 479 kts 199°
2026-05-04 16:08 48.02000 -12.45267 34091 ft 477 kts 200°
2026-05-04 16:09 47.84288 -12.54861 34084 ft 477 kts 200°
2026-05-04 16:10 47.70091 -12.62503 34084 ft 477 kts 200°
2026-05-04 16:11 47.55912 -12.70091 34077 ft 475 kts 199°
2026-05-04 16:12 47.34838 -12.81288 34108 ft 475 kts 199°
2026-05-04 16:13 47.20888 -12.88645 34094 ft 474 kts 199°
2026-05-04 16:14 47.06958 -12.95949 34105 ft 475 kts 199°
2026-05-04 16:16 46.89467 -13.05071 34092 ft 471 kts 199°
2026-05-04 16:17 46.72345 -13.13938 34103 ft 472 kts 200°
2026-05-04 16:18 46.58649 -13.20985 34098 ft 472 kts 200°
2026-05-04 16:19 46.41625 -13.29693 34106 ft 471 kts 200°
2026-05-04 16:20 46.24642 -13.38322 34097 ft 471 kts 200°
2026-05-04 16:22 46.07292 -13.47078 34107 ft 473 kts 200°
2026-05-04 16:23 45.85998 -13.57742 34108 ft 472 kts 200°
2026-05-04 16:25 45.64417 -13.68467 34122 ft 474 kts 200°
2026-05-04 16:26 45.39396 -13.80790 34135 ft 474 kts 200°
2026-05-04 16:28 45.21580 -13.89492 34134 ft 472 kts 200°
2026-05-04 16:29 44.96870 -14.01540 34128 ft 471 kts 202°
2026-05-04 16:31 44.79645 -14.11190 34144 ft 469 kts 205°
2026-05-04 16:32 44.59165 -14.22527 34152 ft 469 kts 204°
2026-05-04 16:33 44.45492 -14.30011 34164 ft 467 kts 205°
2026-05-04 16:34 44.35361 -14.35531 34164 ft 469 kts 205°
2026-05-04 16:35 44.15234 -14.46435 34171 ft 467 kts 205°
2026-05-04 16:36 44.05196 -14.51846 34168 ft 466 kts 205°
2026-05-04 16:37 43.95261 -14.57176 34159 ft 463 kts 205°
2026-05-04 16:38 43.82003 -14.64266 34162 ft 463 kts 206°
2026-05-04 16:39 43.65408 -14.73090 34176 ft 463 kts 205°
2026-05-04 16:40 43.52271 -14.80039 34176 ft 462 kts 205°
2026-05-04 16:41 43.36031 -14.88585 34179 ft 460 kts 206°
2026-05-04 16:43 43.19976 -14.96987 34188 ft 457 kts 206°
2026-05-04 16:43 43.10413 -15.01965 34194 ft 455 kts 206°
2026-05-04 16:45 42.91390 -15.11820 34193 ft 451 kts 207°
2026-05-04 16:46 42.75475 -15.20021 34196 ft 451 kts 207°
2026-05-04 16:47 42.62862 -15.26485 34195 ft 449 kts 207°
2026-05-04 16:48 42.49958 -15.33068 34195 ft 446 kts 207°
2026-05-04 16:49 42.36766 -15.39769 34196 ft 444 kts 208°
2026-05-04 16:50 42.23599 -15.46429 34199 ft 444 kts 208°
2026-05-04 16:51 42.13725 -15.51401 34196 ft 439 kts 208°
2026-05-04 16:52 42.00502 -15.57839 34194 ft 444 kts 203°
2026-05-04 16:53 41.89960 -15.59769 34199 ft 454 kts 191°
2026-05-04 16:53 41.79638 -15.60682 34674 ft 459 kts 191°
2026-05-04 16:54 41.76258 -15.61003 35018 ft 457 kts 191°
2026-05-04 16:55 41.62004 -15.62479 35201 ft 456 kts 192°
2026-05-04 16:55 41.55051 -15.63230 35206 ft 455 kts 192°
2026-05-04 16:56 41.37540 -15.65132 35205 ft 455 kts 191°
2026-05-04 16:57 41.27162 -15.66254 35207 ft 453 kts 192°
2026-05-04 16:58 41.13298 -15.67746 35207 ft 452 kts 192°
2026-05-04 17:00 40.92545 -15.69970 35195 ft 449 kts 192°
2026-05-04 17:01 40.75155 -15.71822 35203 ft 449 kts 192°
2026-05-04 17:02 40.61379 -15.73279 35205 ft 448 kts 192°
2026-05-04 17:03 40.51090 -15.74368 35202 ft 445 kts 192°
2026-05-04 17:03 40.40826 -15.75447 35203 ft 445 kts 191°
2026-05-04 17:04 40.27167 -15.76881 35207 ft 444 kts 191°
2026-05-04 17:05 40.13658 -15.78291 35209 ft 442 kts 191°
2026-05-04 17:06 40.03610 -15.79339 35212 ft 442 kts 191°
2026-05-04 17:07 39.94677 -15.80265 35211 ft 440 kts 191°
2026-05-04 17:07 39.86867 -15.81073 35210 ft 438 kts 191°
2026-05-04 17:08 39.76819 -15.82112 35206 ft 438 kts 191°
2026-05-04 17:09 39.70131 -15.82801 35208 ft 438 kts 191°
2026-05-04 17:09 39.63552 -15.83476 35207 ft 437 kts 190°
2026-05-04 17:10 39.47136 -15.85159 35207 ft 436 kts 190°
2026-05-04 17:11 39.40724 -15.85813 35207 ft 436 kts 190°
2026-05-04 17:12 39.30922 -15.86813 35198 ft 435 kts 189°
2026-05-04 17:13 39.14715 -15.88458 35193 ft 433 kts 189°
2026-05-04 17:14 39.01866 -15.89757 35195 ft 433 kts 189°
2026-05-04 17:15 38.92083 -15.90741 35190 ft 431 kts 189°
2026-05-04 17:16 38.78830 -15.92072 35191 ft 430 kts 189°
2026-05-04 17:17 38.65713 -15.93387 35193 ft 430 kts 189°
2026-05-04 17:18 38.52753 -15.94679 35182 ft 430 kts 190°
2026-05-04 17:19 38.39837 -15.95961 35181 ft 428 kts 190°
2026-05-04 17:20 38.27102 -15.97222 35186 ft 427 kts 190°
2026-05-04 17:20 38.17714 -15.98148 35194 ft 427 kts 191°
2026-05-04 17:21 38.05112 -15.99386 35194 ft 424 kts 191°
2026-05-04 17:22 37.98774 -16.00010 35196 ft 423 kts 191°
2026-05-04 17:23 37.85987 -16.01265 35193 ft 424 kts 191°
2026-05-04 17:24 37.76215 -16.02216 35192 ft 422 kts 191°
2026-05-04 17:25 37.63387 -16.03463 35191 ft 421 kts 191°
2026-05-04 17:26 37.50888 -16.04677 35193 ft 423 kts 191°
2026-05-04 17:27 37.35524 -16.06158 35192 ft 420 kts 191°
2026-05-04 17:28 37.23192 -16.07345 35191 ft 418 kts 191°
2026-05-04 17:29 37.03743 -16.09210 35176 ft 418 kts 191°
2026-05-04 17:31 36.87323 -16.10777 35175 ft 417 kts 191°
2026-05-04 17:32 36.70930 -16.12334 35177 ft 417 kts 191°
2026-05-04 17:33 36.57939 -16.13564 35175 ft 419 kts 191°
2026-05-04 17:34 36.45005 -16.14781 35173 ft 417 kts 191°
2026-05-04 17:35 36.28725 -16.16309 35163 ft 418 kts 191°
2026-05-04 17:36 36.22256 -16.16915 35162 ft 417 kts 191°
2026-05-04 17:36 36.15749 -16.17523 35161 ft 417 kts 190°
2026-05-04 17:37 36.09297 -16.18125 35164 ft 417 kts 190°
2026-05-04 17:37 36.02825 -16.18729 35168 ft 417 kts 190°
2026-05-04 17:38 35.96398 -16.19327 35174 ft 418 kts 190°
2026-05-04 17:38 35.89997 -16.19921 35171 ft 416 kts 190°
2026-05-04 17:39 35.80360 -16.20814 35168 ft 416 kts 190°
2026-05-04 17:39 35.73891 -16.21412 35167 ft 416 kts 190°
2026-05-04 17:40 35.67533 -16.21999 35170 ft 417 kts 190°
2026-05-04 17:40 35.61187 -16.22585 35164 ft 417 kts 190°
2026-05-04 17:41 35.54866 -16.23165 35163 ft 416 kts 190°
2026-05-04 17:41 35.48531 -16.23701 35162 ft 416 kts 189°
2026-05-04 17:42 35.42307 -16.24053 35162 ft 417 kts 188°
2026-05-04 17:42 35.36049 -16.24375 35162 ft 417 kts 188°
2026-05-04 17:43 35.29882 -16.24706 35159 ft 416 kts 188°
2026-05-04 17:43 35.23723 -16.25050 35158 ft 417 kts 188°
2026-05-04 17:44 35.17560 -16.25397 35156 ft 415 kts 188°
2026-05-04 17:44 35.11433 -16.25747 35149 ft 417 kts 188°
2026-05-04 17:45 35.05344 -16.26094 35139 ft 418 kts 188°
2026-05-04 17:45 34.99262 -16.26437 35133 ft 415 kts 188°
2026-05-04 17:46 34.93233 -16.26779 35131 ft 415 kts 188°
2026-05-04 17:46 34.87230 -16.27120 35130 ft 415 kts 188°
2026-05-04 17:47 34.81221 -16.27456 35126 ft 415 kts 188°
2026-05-04 17:47 34.75282 -16.27794 35128 ft 416 kts 188°
2026-05-04 17:48 34.69257 -16.28133 35132 ft 418 kts 188°
2026-05-04 17:48 34.63206 -16.28472 35136 ft 416 kts 188°
2026-05-04 17:49 34.57199 -16.28807 35139 ft 415 kts 188°
2026-05-04 17:49 34.51188 -16.29146 35133 ft 418 kts 188°
2026-05-04 17:50 34.45307 -16.29475 35129 ft 416 kts 187°
2026-05-04 17:50 34.39462 -16.29801 35131 ft 416 kts 187°
2026-05-04 17:51 34.33383 -16.30140 35127 ft 417 kts 187°
2026-05-04 17:51 34.27518 -16.30465 35135 ft 417 kts 187°
2026-05-04 17:52 34.21656 -16.30792 35137 ft 417 kts 187°
2026-05-04 17:52 34.15476 -16.31136 35135 ft 418 kts 187°
2026-05-04 17:53 34.09045 -16.31491 35130 ft 416 kts 187°
2026-05-04 17:53 34.02565 -16.31851 35129 ft 417 kts 187°
2026-05-04 17:54 33.96104 -16.32208 35121 ft 417 kts 187°
2026-05-04 17:54 33.89632 -16.32565 35121 ft 417 kts 187°
2026-05-04 17:55 33.83605 -16.32897 35120 ft 416 kts 187°
2026-05-04 17:55 33.77841 -16.33213 35113 ft 416 kts 186°
2026-05-04 17:56 33.72060 -16.33529 35112 ft 415 kts 187°
2026-05-04 17:56 33.66242 -16.33850 35109 ft 416 kts 187°
2026-05-04 17:57 33.60409 -16.34170 35108 ft 415 kts 187°
2026-05-04 17:57 33.54597 -16.34487 35104 ft 414 kts 187°
2026-05-04 17:58 33.48767 -16.34807 35093 ft 414 kts 187°
2026-05-04 17:58 33.43013 -16.35121 35091 ft 412 kts 187°
2026-05-04 17:59 33.37242 -16.35437 35088 ft 413 kts 187°